Powrót do katalogu

CZ-6A DEB

AktywnySSO
NORAD 54528·DEBRIS·🇨🇳 China

Wystrzelony Nov 11, 2022 z Taiyuan Satellite Launch Center

Loading…

Następne Przeloty (najbliższe 24 godziny)

TLE

ŚwieżeSource: Space-Track

Epoka: Sep 14, 2026, 01:02 UTC

1 54528U 22151KG  26257.04343188  .00001660  00000-0  42940-3 0  9993
2 54528  98.5295 290.7374 0091710  51.4598 309.4770 14.48774018201890

Śledź CZ-6A DEB w czasie rzeczywistym z AllMySat

Download on the App Store